[[{"header":{"parameterUnit":"m.s-1","parameterCategory":2,"la1":30.2991,"la2":30.254,"lo1":-89.0895,"lo2":-89.0444,"dy":0.0017,"dx":0.0017,"nx":28,"ny":28,"refTime":"2023-11-03T09:00:00:Z","depth":"0","parameterNumber":2,"parameterNumberName":"U-component_of_CURRENTS"},"data":[0,0,0,0,0,0,0,0,0,0,0,0,0,0,0,0,0,0,0,0,0,0,0,0,0,0,0,0,0,0,0,0,0,0,0,0,0,0,0,0,0,0,0,0,0,0,0,0,0,0,0,0,0,0,0,0,0,0,0.2894,0.2894,0,0.2875,0.2874,0.2873,0.2856,0.2856,0.2857,0.2857,0.2803,0.2802,0.28,0,0,0,0,0,0,0,0,0,0,0,0,0,0.2901,0.29,0.2894,0.2894,0.2895,0.2875,0.2874,0.2873,0.2856,0.2856,0.2857,0.2857,0.2804,0.2802,0.28,0,0,0,0,0,0,0,0,0,0,0,0,0,0.2887,0.29,0.2894,0.2887,0.2886,0.2875,0.2874,0.2873,0.2856,0.2856,0.2857,0.2857,0.2805,0.2802,0.28,0.2779,0,0,0.2792,0.2791,0,0,0,0,0,0,0,0,0.2888,0.2886,0.2888,0.2887,0.2887,0.2872,0.2857,0.2841,0.2856,0.2863,0.2857,0.2857,0.2826,0.2822,0.2812,0.2776,0.2774,0.2792,0.2791,0.279,0.2789,0,0,0,0,0,0,0,0.2889,0.2887,0.2882,0.2888,0.2887,0.2879,0.2877,0.2854,0.2839,0.2862,0.2862,0.2867,0.2825,0.2814,0.281,0.2773,0.2792,0.279,0.2789,0.2788,0.2773,0.2774,0,0,0,0,0,0,0.29,0.2888,0.2883,0.2882,0.2893,0.2879,0.2877,0.2873,0.284,0.2837,0.2867,0.2866,0.2818,0.2813,0.2808,0.2839,0.279,0.2787,0.2786,0.2772,0.2773,0.2774,0,0,0,0,0,0,0.29,0.29,0.2884,0.2888,0.2886,0.2879,0.2875,0.2872,0.2869,0.2844,0.284,0.2867,0.2818,0.2812,0.2801,0.2834,0.2786,0.2784,0.2771,0.2772,0.2774,0.2863,0,0,0,0,0,0,0.29,0.29,0.2899,0.2889,0.2887,0.2886,0.2875,0.2872,0.2873,0.2872,0.2843,0.2838,0.2818,0.2805,0.2799,0.283,0.2782,0.2769,0.2772,0.2773,0.2859,0.2867,0.2875,0,0,0,0,0,0.2901,0.2898,0.2898,0.2898,0.2886,0.2887,0.2885,0.2878,0.2873,0.2875,0.286,0.2839,0.2814,0.2804,0.2796,0.2828,0.2768,0.2771,0.2773,0.2855,0.2866,0.2875,0,0,0,0,0,0,0.2892,0.2896,0.2896,0.2893,0.2897,0.2886,0.2887,0.2883,0.287,0.287,0.2843,0.2837,0.2845,0.2818,0.2808,0.2829,0.2792,0.2793,0.2856,0.2866,0.2874,0.2898,0.278,0,0,0,0,0,0.2894,0.2896,0.2899,0.2897,0.2901,0.2895,0.2895,0.2893,0.2884,0.2878,0.2861,0.2847,0.2847,0.2842,0.2829,0.283,0.2845,0.2848,0.2856,0.2863,0.2879,0.2934,0.295,0.2782,0.2782,0.2782,0,0,0.2886,0.2893,0.2891,0.2897,0.2897,0.2907,0.2894,0.2899,0.2911,0.2874,0.2878,0.287,0.2853,0.2866,0.2867,0.2848,0.2919,0.2866,0.2873,0.2884,0.2938,0.2955,0.297,0.2784,0.2784,0.2783,0,0,0.2879,0.2885,0.2886,0.2896,0.291,0.2915,0.2922,0.2919,0.2923,0.2924,0.2917,0.2934,0.2904,0.2922,0.2923,0.2965,0.2961,0.2955,0.3016,0.307,0.3085,0.3098,0.3148,0.3164,0.2959,0.296,0.296,0,0.287,0.2877,0.2886,0.2898,0.2913,0.2924,0.2936,0.2944,0.2939,0.2959,0.2935,0.2957,0.294,0.2993,0.3011,0.2987,0.3012,0.2982,0.3084,0.3097,0.3109,0.3156,0.3174,0.2964,0.2964,0.2963,0.2963,0,0.2865,0.2879,0.2885,0.2909,0.2926,0.2941,0.2964,0.2986,0.2995,0.3007,0.3052,0.3042,0.3065,0.3066,0.3048,0.3132,0.312,0.3091,0.3065,0.3132,0.3176,0.3193,0.2971,0.2969,0.2968,0.2967,0,0,0.282,0.2872,0.2872,0.2897,0.2938,0.2951,0.2998,0.3046,0.3087,0.3097,0.3151,0.3172,0.3184,0.3187,0.3182,0.3228,0.3333,0.3199,0.32,0.3259,0.346,0.3414,0.3427,0.3324,0.3327,0.333,0.3461,0,0.2814,0.2845,0.2875,0.2913,0.2936,0.2986,0.303,0.308,0.3118,0.3171,0.3209,0.3245,0.3225,0.3245,0.3295,0.332,0.338,0.3301,0.3377,0.3379,0.3339,0.3446,0.3277,0.3376,0.3478,0.348,0.3482,0,0.2793,0.2827,0.2859,0.2939,0.2953,0.298,0.3075,0.3115,0.3209,0.3239,0.3309,0.3332,0.3421,0.3374,0.3494,0.3445,0.3469,0.3484,0.3489,0.3427,0.3364,0.3322,0.3402,0.334,0.3508,0.3506,0.3504,0,0.2756,0.2816,0.2849,0.287,0.2955,0.2991,0.3041,0.3133,0.3187,0.3289,0.3345,0.3437,0.3491,0.3549,0.3598,0.3554,0.3718,0.3654,0.3644,0.364,0.3502,0.3481,0.3537,0.375,0.3749,0.3749,0.3749,0,0.274,0.2765,0.2833,0.285,0.2907,0.2969,0.304,0.311,0.3213,0.3287,0.3375,0.3457,0.3538,0.3636,0.3655,0.3723,0.3775,0.3691,0.3686,0.3527,0.3507,0.3447,0.3408,0.3754,0.3753,0.3752,0.3751,0,0.2692,0.2734,0.2778,0.2862,0.2887,0.2925,0.303,0.3084,0.3195,0.3299,0.334,0.3501,0.3633,0.3718,0.3822,0.3798,0.3754,0.386,0.367,0.364,0.3526,0.3497,0.3435,0.3329,0.3862,0.3862,0.3862,0,0.2671,0.2688,0.2767,0.2791,0.2825,0.289,0.2936,0.3052,0.3111,0.3321,0.3365,0.355,0.3651,0.3813,0.3818,0.3876,0.3774,0.3739,0.3617,0.3536,0.3501,0.3371,0.3276,0.3474,0.3471,0.3469,0.3466,0,0.2639,0.2664,0.2698,0.2747,0.2786,0.2838,0.291,0.2957,0.3103,0.32,0.3348,0.3455,0.3639,0.3632,0.3724,0.3728,0.3553,0.3684,0.3649,0.3259,0.3072,0.296,0.3379,0.3442,0.3445,0.3446,0.3448,0.3449,0.2605,0.2618,0.2658,0.2691,0.2733,0.276,0.2757,0.2844,0.2918,0.301,0.3208,0.3294,0.3411,0.3514,0.3509,0.3425,0.3411,0.3302,0.3296,0.319,0.3013,0.3389,0.341,0.3413,0.3414,0.3416,0.3417,0,0.2549,0.2566,0.2601,0.2616,0.261,0.2668,0.2711,0.268,0.2697,0.2828,0.2911,0.3043,0.3065,0.3166,0.318,0.3059,0.2892,0.2981,0.2756,0.2697,0.3083,0.2991,0.2861,0.2861,0.2861,0.2861,0.2861,0.2862,0.2519,0.2509,0.2519,0.2474,0.2483,0.2418,0.2409,0.2391,0.2438,0.2473,0.2535,0.2647,0.2927,0.3017,0.295,0.2857,0.2631,0.2489,0.2519,0.28,0.2828,0.2855,0.2762,0.2586,0.2586,0.1984,0.198,0.1976]},{"header":{"parameterUnit":"m.s-1","parameterCategory":2,"la1":30.2991,"la2":30.254,"lo1":-89.0895,"lo2":-89.0444,"dy":0.0017,"dx":0.0017,"nx":28,"ny":28,"refTime":"2023-11-03T09:00:00:Z","depth":"0","parameterNumber":3,"parameterNumberName":"V-component_of_CURRENTS"},"data":[0,0,0,0,0,0,0,0,0,0,0,0,0,0,0,0,0,0,0,0,0,0,0,0,0,0,0,0,0,0,0,0,0,0,0,0,0,0,0,0,0,0,0,0,0,0,0,0,0,0,0,0,0,0,0,0,0,0,-0.0322,-0.0322,0,-0.034,-0.034,-0.034,-0.0357,-0.0357,-0.0357,-0.0357,-0.0418,-0.0419,-0.042,0,0,0,0,0,0,0,0,0,0,0,0,0,-0.0355,-0.0354,-0.0322,-0.0322,-0.0323,-0.034,-0.034,-0.034,-0.0357,-0.0357,-0.0357,-0.0357,-0.0417,-0.0419,-0.0421,0,0,0,0,0,0,0,0,0,0,0,0,0,-0.0354,-0.0353,-0.0322,-0.0332,-0.0333,-0.034,-0.034,-0.034,-0.0357,-0.0357,-0.0357,-0.0357,-0.0416,-0.0419,-0.0421,-0.0432,0,0,-0.0428,-0.0429,0,0,0,0,0,0,0,0,-0.0354,-0.0353,-0.033,-0.0331,-0.0332,-0.0345,-0.0373,-0.0373,-0.0357,-0.0349,-0.0357,-0.0357,-0.0397,-0.04,-0.0404,-0.0434,-0.0437,-0.0428,-0.0429,-0.043,-0.0431,0,0,0,0,0,0,0,-0.0354,-0.0353,-0.033,-0.0331,-0.0332,-0.0353,-0.0353,-0.0374,-0.0373,-0.0349,-0.035,-0.0351,-0.0398,-0.0402,-0.0406,-0.0438,-0.0428,-0.043,-0.0431,-0.0432,-0.0483,-0.0483,0,0,0,0,0,0,-0.0346,-0.0352,-0.033,-0.0331,-0.0343,-0.0352,-0.0352,-0.0342,-0.0372,-0.0376,-0.035,-0.0351,-0.0398,-0.0403,-0.0408,-0.0423,-0.043,-0.0432,-0.0434,-0.0483,-0.0483,-0.0483,0,0,0,0,0,0,-0.0347,-0.0344,-0.0329,-0.0342,-0.0341,-0.0351,-0.034,-0.0342,-0.0342,-0.0372,-0.0377,-0.0348,-0.0398,-0.0405,-0.0419,-0.0425,-0.0433,-0.0436,-0.0483,-0.0483,-0.0483,-0.0452,0,0,0,0,0,0,-0.0348,-0.0344,-0.0336,-0.0341,-0.034,-0.0322,-0.034,-0.0342,-0.0342,-0.0343,-0.0372,-0.0378,-0.0399,-0.0415,-0.0421,-0.0428,-0.0437,-0.0483,-0.0483,-0.0483,-0.0453,-0.0451,-0.0449,0,0,0,0,0,-0.0349,-0.0329,-0.0335,-0.0333,-0.0328,-0.0322,-0.0323,-0.0332,-0.0341,-0.0335,-0.0356,-0.0376,-0.0419,-0.0416,-0.0423,-0.0432,-0.0483,-0.0483,-0.0483,-0.0454,-0.0451,-0.0449,0,0,0,0,0,0,-0.0329,-0.0329,-0.0336,-0.0315,-0.0316,-0.0324,-0.0316,-0.0327,-0.0338,-0.0342,-0.0372,-0.0379,-0.0396,-0.0415,-0.0411,-0.0446,-0.0457,-0.0458,-0.0432,-0.043,-0.0428,-0.0404,-0.0439,0,0,0,0,0,-0.0324,-0.0313,-0.0316,-0.0299,-0.0297,-0.0308,-0.0308,-0.0315,-0.0325,-0.033,-0.0351,-0.0377,-0.0402,-0.0415,-0.0436,-0.0452,-0.0466,-0.0464,-0.0462,-0.046,-0.0445,-0.0481,-0.0481,-0.0483,-0.0483,-0.0483,0,0,-0.0311,-0.0309,-0.0303,-0.0295,-0.0297,-0.0285,-0.0308,-0.0301,-0.0296,-0.0336,-0.0336,-0.0368,-0.0403,-0.0422,-0.0432,-0.0438,-0.0465,-0.046,-0.0458,-0.0443,-0.0481,-0.0481,-0.0481,-0.0483,-0.0483,-0.0483,0,0,-0.0275,-0.0277,-0.0257,-0.0256,-0.0257,-0.0265,-0.0261,-0.0268,-0.0276,-0.0282,-0.0316,-0.0347,-0.0375,-0.0408,-0.0427,-0.0427,-0.0451,-0.0437,-0.0411,-0.0447,-0.0447,-0.0447,-0.0454,-0.0456,-0.0439,-0.0439,-0.0439,0,-0.0261,-0.0234,-0.0249,-0.023,-0.0224,-0.0252,-0.0228,-0.024,-0.0254,-0.026,-0.0275,-0.033,-0.0369,-0.0398,-0.0403,-0.0423,-0.0433,-0.0418,-0.0444,-0.0445,-0.0445,-0.0453,-0.0455,-0.0437,-0.0437,-0.0438,-0.0438,0,-0.021,-0.0193,-0.0178,-0.0166,-0.0165,-0.0147,-0.0166,-0.0169,-0.0188,-0.0207,-0.0235,-0.029,-0.032,-0.035,-0.0377,-0.0406,-0.0407,-0.0436,-0.0448,-0.0443,-0.0451,-0.0454,-0.0435,-0.0436,-0.0436,-0.0436,0,0,-0.0156,-0.0145,-0.0137,-0.0123,-0.0129,-0.0117,-0.0115,-0.0117,-0.0108,-0.0152,-0.0148,-0.0222,-0.0256,-0.028,-0.0332,-0.0373,-0.0399,-0.0401,-0.0404,-0.0403,-0.0453,-0.0426,-0.0426,-0.0433,-0.0434,-0.0434,-0.0452,0,-0.0107,-0.006,-0.0071,-0.003,-0.0006,-0.0034,-0.0022,-0.0037,-0.006,-0.0066,-0.0143,-0.0162,-0.0229,-0.0245,-0.0299,-0.0367,-0.0404,-0.0389,-0.0461,-0.0462,-0.0436,-0.0428,-0.0402,-0.0414,-0.0455,-0.0455,-0.0455,0,-0.0047,-0.0025,0.0026,0.0045,0.0054,0.0071,0.0085,0.0088,0.0055,0.0034,-0.0014,-0.0064,-0.013,-0.0188,-0.03,-0.0284,-0.0359,-0.0421,-0.0424,-0.0407,-0.044,-0.0429,-0.0417,-0.0573,-0.0459,-0.0459,-0.0459,0,0.001,0.0045,0.0089,0.0096,0.0112,0.0131,0.0137,0.0123,0.0141,0.0097,0.0105,0.0013,-0.0011,-0.0129,-0.0247,-0.0275,-0.0357,-0.0417,-0.0462,-0.046,-0.0455,-0.0452,-0.0598,-0.0495,-0.0495,-0.0495,-0.0495,0,0.007,0.0105,0.0122,0.0148,0.0207,0.0192,0.0246,0.0231,0.0234,0.0279,0.0163,0.0185,0.0003,-0.0063,-0.0202,-0.0313,-0.0322,-0.0442,-0.0464,-0.0442,-0.0437,-0.0586,-0.0686,-0.0496,-0.0496,-0.0496,-0.0496,0,0.0125,0.0136,0.0188,0.0219,0.0237,0.0277,0.0326,0.0365,0.0347,0.0405,0.0401,0.0326,0.0248,0.0078,-0.0089,-0.0226,-0.0441,-0.0401,-0.0343,-0.0358,-0.0559,-0.0656,-0.0809,-0.0874,-0.0462,-0.0462,-0.0461,0,0.0154,0.019,0.0247,0.0289,0.0308,0.0366,0.0417,0.0422,0.0476,0.0513,0.0558,0.05,0.0503,0.0266,0.0012,-0.0207,-0.0391,-0.0351,-0.0418,-0.0551,-0.0678,-0.0758,-0.0809,-0.0399,-0.0398,-0.0397,-0.0397,0,0.0213,0.0236,0.0281,0.0372,0.0435,0.0507,0.0582,0.0648,0.0687,0.0753,0.0847,0.0858,0.0643,0.0444,0.0125,-0.0056,-0.0459,-0.0342,-0.0513,-0.0658,-0.0723,-0.0801,-0.039,-0.039,-0.039,-0.0391,-0.0391,-0.0392,0.0262,0.0308,0.0379,0.0466,0.0545,0.0656,0.0736,0.0838,0.0969,0.1092,0.1085,0.1134,0.0804,0.0381,0.0121,-0.0363,-0.0401,-0.0531,-0.064,-0.0709,-0.0774,-0.0324,-0.0332,-0.0332,-0.0332,-0.0333,-0.0333,0,0.0332,0.0387,0.047,0.0582,0.0686,0.071,0.0858,0.0956,0.1143,0.1263,0.1359,0.124,0.0838,0.0385,-0.0251,-0.0602,-0.0755,-0.0812,-0.0948,-0.0988,-0.0611,-0.061,-0.0638,-0.0638,-0.0638,-0.0638,-0.0638,-0.0638,0.0374,0.0471,0.0514,0.0693,0.0774,0.0921,0.1014,0.1167,0.1286,0.1451,0.1494,0.1491,0.116,0.0024,-0.0773,-0.0966,-0.1217,-0.1266,-0.1405,-0.1181,-0.1164,-0.1148,-0.1171,-0.1317,-0.1318,-0.1728,-0.1732,-0.1735]}],[{"header":{"parameterUnit":"m.s-1","parameterCategory":2,"la1":30.2991,"la2":30.254,"lo1":-89.0895,"lo2":-89.0444,"dy":0.0017,"dx":0.0017,"nx":28,"ny":28,"refTime":"2023-11-03T09:00:00:Z","depth":"2","parameterNumber":2,"parameterNumberName":"U-component_of_CURRENTS"},"data":[0,0,0,0,0,0,0,0,0,0,0,0,0,0,0,0,0,0,0,0,0,0,0,0,0,0,0,0,0,0,0,0,0,0,0,0,0,0,0,0,0,0,0,0,0,0,0,0,0,0,0,0,0,0,0,0,0,0,0.2544,0.2544,0,0.254,0.254,0.2539,0.2541,0.2542,0.2542,0.2543,0.2536,0.2535,0.2535,0,0,0,0,0,0,0,0,0,0,0,0,0,0.2507,0.2507,0.2544,0.2544,0.2544,0.254,0.254,0.2539,0.2541,0.2542,0.2542,0.2543,0.2536,0.2535,0.2534,0,0,0,0,0,0,0,0,0,0,0,0,0,0.2511,0.2507,0.2544,0.2547,0.2548,0.254,0.254,0.2539,0.2541,0.2542,0.2542,0.2543,0.2536,0.2535,0.2534,0.2516,0,0,0.2532,0.2531,0,0,0,0,0,0,0,0,0.2511,0.2512,0.2547,0.2547,0.2548,0.2545,0.2524,0.2532,0.2541,0.254,0.2543,0.2543,0.254,0.2539,0.2532,0.2516,0.2515,0.2532,0.2531,0.2531,0.253,0,0,0,0,0,0,0,0.2511,0.2512,0.2539,0.2547,0.2548,0.2534,0.2535,0.2525,0.2534,0.254,0.2541,0.2546,0.254,0.2533,0.2532,0.2515,0.2532,0.2531,0.253,0.253,0.2561,0.2563,0,0,0,0,0,0,0.252,0.2512,0.2539,0.2539,0.2535,0.2534,0.2536,0.2542,0.2534,0.2534,0.2546,0.2546,0.2534,0.2533,0.2532,0.2579,0.2531,0.253,0.2529,0.256,0.2562,0.2563,0,0,0,0,0,0,0.252,0.2523,0.2539,0.2528,0.253,0.2535,0.2542,0.2542,0.2554,0.2539,0.2539,0.2561,0.2534,0.2533,0.2547,0.2576,0.2529,0.2529,0.2558,0.256,0.2562,0.2629,0,0,0,0,0,0,0.2519,0.2522,0.2531,0.2529,0.2531,0.2551,0.2542,0.2542,0.2557,0.2558,0.2551,0.255,0.2535,0.2549,0.2546,0.2574,0.2528,0.2557,0.2559,0.2562,0.2625,0.2633,0.264,0,0,0,0,0,0.2517,0.2524,0.2532,0.2535,0.2543,0.2552,0.2552,0.2555,0.2557,0.2567,0.2568,0.2551,0.2564,0.2549,0.2546,0.2574,0.2555,0.2558,0.2561,0.2621,0.2631,0.2639,0,0,0,0,0,0,0.2515,0.2525,0.2533,0.2544,0.2558,0.2555,0.2561,0.2566,0.2572,0.2576,0.2562,0.2561,0.2587,0.2571,0.2555,0.2592,0.2559,0.2562,0.2606,0.2615,0.2622,0.2658,0.2527,0,0,0,0,0,0.2519,0.2525,0.254,0.255,0.256,0.2565,0.257,0.2576,0.2581,0.2584,0.2582,0.2583,0.2593,0.2597,0.2596,0.261,0.2623,0.2628,0.2636,0.2642,0.2671,0.2716,0.2731,0.2573,0.2573,0.2573,0,0,0.2514,0.2528,0.2527,0.255,0.2558,0.2575,0.257,0.2585,0.2604,0.2582,0.2604,0.2607,0.2603,0.2625,0.2635,0.2617,0.2692,0.2646,0.2651,0.2677,0.2721,0.2736,0.275,0.2575,0.2575,0.2574,0,0,0.2512,0.253,0.2535,0.2553,0.2579,0.2588,0.2601,0.2612,0.2625,0.2647,0.2643,0.2672,0.2669,0.2684,0.2688,0.2736,0.2731,0.2732,0.2797,0.284,0.2854,0.2866,0.2896,0.2911,0.2734,0.2734,0.2734,0,0.2505,0.2527,0.2539,0.2559,0.258,0.26,0.2621,0.2635,0.2651,0.2678,0.2665,0.2714,0.2703,0.2757,0.2777,0.2756,0.2777,0.2761,0.2852,0.2864,0.2876,0.2903,0.2918,0.2738,0.2737,0.2737,0.2737,0,0.2512,0.2536,0.2546,0.258,0.2602,0.2625,0.2655,0.2687,0.2709,0.273,0.2792,0.2793,0.2831,0.2829,0.2818,0.2899,0.2885,0.2856,0.2831,0.2896,0.292,0.2935,0.2743,0.2742,0.274,0.274,0,0,0.2475,0.2535,0.2541,0.2569,0.2621,0.2638,0.2689,0.2746,0.2794,0.2825,0.2891,0.2923,0.2947,0.2956,0.2952,0.2993,0.3079,0.2969,0.2969,0.3003,0.3179,0.3108,0.3116,0.3069,0.3072,0.3075,0.3161,0,0.248,0.2521,0.2555,0.2603,0.2628,0.2682,0.2728,0.2785,0.2835,0.2901,0.2947,0.2995,0.2986,0.3011,0.3061,0.3073,0.3123,0.3059,0.3109,0.3111,0.3043,0.3133,0.2879,0.293,0.3175,0.3177,0.3179,0,0.2476,0.251,0.2554,0.263,0.2648,0.2685,0.2785,0.2831,0.2934,0.2978,0.3063,0.3087,0.3172,0.3137,0.3239,0.3201,0.3214,0.3218,0.3221,0.3148,0.3068,0.2906,0.2947,0.3203,0.3201,0.32,0.3198,0,0.2445,0.2511,0.2551,0.2575,0.266,0.2705,0.2761,0.286,0.2915,0.3035,0.3087,0.3188,0.3244,0.329,0.3313,0.3286,0.3408,0.3356,0.3311,0.3304,0.3097,0.3067,0.3442,0.3442,0.3441,0.3441,0.3441,0,0.2436,0.2467,0.2544,0.2567,0.263,0.2696,0.2777,0.2856,0.2966,0.3036,0.3127,0.3195,0.329,0.3356,0.3361,0.3394,0.3451,0.3359,0.3338,0.311,0.3082,0.332,0.3305,0.3444,0.3444,0.3443,0.3442,0,0.2391,0.2441,0.2491,0.2584,0.2615,0.2662,0.2774,0.2831,0.2948,0.3045,0.3083,0.3234,0.3324,0.339,0.347,0.3451,0.3472,0.3462,0.3188,0.3134,0.3327,0.3315,0.3433,0.3431,0.343,0.3429,0.3428,0,0.2371,0.2394,0.2486,0.2515,0.2559,0.2635,0.2684,0.2811,0.2868,0.3047,0.3082,0.3226,0.3284,0.3396,0.34,0.342,0.3465,0.3184,0.3088,0.3367,0.3335,0.3324,0.3313,0.2833,0.2827,0.2822,0.2819,0,0.2339,0.2375,0.2414,0.2469,0.2522,0.2571,0.2651,0.2685,0.2828,0.2901,0.3002,0.3066,0.3211,0.3134,0.3193,0.3161,0.316,0.3092,0.3469,0.2875,0.2808,0.2774,0.2782,0.2777,0.2782,0.2785,0.2787,0.2789,0.2313,0.2325,0.2374,0.241,0.2466,0.2482,0.2475,0.2549,0.2601,0.267,0.2823,0.284,0.2914,0.2877,0.2804,0.277,0.2982,0.2836,0.2847,0.2864,0.278,0.2715,0.265,0.2654,0.2656,0.2659,0.2661,0,0.2257,0.2275,0.2309,0.2334,0.2329,0.2399,0.2427,0.2381,0.2367,0.2476,0.2529,0.2372,0.2342,0.241,0.2307,0.2327,0.228,0.2221,0.2124,0.2169,0.2208,0.2086,0.1775,0.1772,0.1769,0.1766,0,0,0.2232,0.2218,0.2217,0.2175,0.2195,0.2143,0.2123,0.2087,0.2115,0.2068,0.2068,0.2248,0.2352,0.2026,0.2,0.1864,0.1995,0.1796,0.2516,0.2448,0.2482,0.2583,0.245,0,0,0,0,0]},{"header":{"parameterUnit":"m.s-1","parameterCategory":2,"la1":30.2991,"la2":30.254,"lo1":-89.0895,"lo2":-89.0444,"dy":0.0017,"dx":0.0017,"nx":28,"ny":28,"refTime":"2023-11-03T09:00:00:Z","depth":"2","parameterNumber":3,"parameterNumberName":"V-component_of_CURRENTS"},"data":[0,0,0,0,0,0,0,0,0,0,0,0,0,0,0,0,0,0,0,0,0,0,0,0,0,0,0,0,0,0,0,0,0,0,0,0,0,0,0,0,0,0,0,0,0,0,0,0,0,0,0,0,0,0,0,0,0,0,0.0033,0.0033,0,-0.0005,-0.0006,-0.0006,-0.0034,-0.0034,-0.0034,-0.0034,-0.0102,-0.0104,-0.0105,0,0,0,0,0,0,0,0,0,0,0,0,0,0.0049,0.0049,0.0033,0.0033,0.0033,-0.0005,-0.0006,-0.0006,-0.0034,-0.0034,-0.0034,-0.0034,-0.0101,-0.0103,-0.0105,0,0,0,0,0,0,0,0,0,0,0,0,0,0.0028,0.0049,0.0033,0.0015,0.0014,-0.0005,-0.0006,-0.0006,-0.0034,-0.0034,-0.0034,-0.0034,-0.0101,-0.0103,-0.0106,-0.0119,0,0,-0.0114,-0.0115,0,0,0,0,0,0,0,0,0.0029,0.0027,0.0018,0.0017,0.0015,-0.0013,-0.0025,-0.0045,-0.0034,-0.0018,-0.0034,-0.0034,-0.0074,-0.0079,-0.0087,-0.0122,-0.0125,-0.0114,-0.0115,-0.0117,-0.0117,0,0,0,0,0,0,0,0.0031,0.0029,0.0017,0.0018,0.0016,-0.0002,-0.0005,-0.0029,-0.0046,-0.0019,-0.0021,-0.0022,-0.0075,-0.0085,-0.0089,-0.0126,-0.0114,-0.0116,-0.0118,-0.0119,-0.0179,-0.0179,0,0,0,0,0,0,0.0041,0.003,0.0018,0.0016,0.0024,-0.0002,-0.0005,-0.0006,-0.0045,-0.0051,-0.0022,-0.0023,-0.008,-0.0086,-0.0092,-0.0099,-0.0116,-0.0119,-0.012,-0.0179,-0.0179,-0.0179,0,0,0,0,0,0,0.0041,0.004,0.0019,0.0023,0.0019,-0.0002,-0.0002,-0.0006,-0.0017,-0.0047,-0.0054,-0.0028,-0.0081,-0.0088,-0.011,-0.0102,-0.012,-0.0122,-0.0179,-0.0179,-0.0179,-0.012,0,0,0,0,0,0,0.0042,0.004,0.0042,0.0024,0.002,0.0013,-0.0002,-0.0007,-0.0017,-0.0019,-0.0055,-0.0061,-0.0081,-0.0106,-0.0112,-0.0106,-0.0124,-0.0179,-0.0179,-0.0179,-0.0122,-0.0118,-0.0115,0,0,0,0,0,0.0042,0.0052,0.0042,0.0041,0.0023,0.0013,0.001,-0.0007,-0.0017,-0.0018,-0.0042,-0.006,-0.0111,-0.0108,-0.0116,-0.011,-0.0179,-0.0179,-0.0179,-0.0123,-0.0119,-0.0115,0,0,0,0,0,0,0.006,0.0049,0.0039,0.0044,0.003,0.0009,0.0009,-0.0006,-0.0026,-0.0028,-0.006,-0.0068,-0.0085,-0.0109,-0.0104,-0.0129,-0.0149,-0.015,-0.0103,-0.0099,-0.0096,-0.0085,-0.0127,0,0,0,0,0,0.0064,0.0068,0.0051,0.0054,0.005,0.0027,0.002,0.0009,-0.001,-0.0019,-0.0045,-0.0072,-0.0092,-0.0104,-0.0128,-0.0141,-0.0164,-0.0144,-0.0141,-0.0137,-0.0135,-0.0163,-0.0161,-0.018,-0.018,-0.018,0,0,0.0073,0.0067,0.0069,0.0058,0.0046,0.0049,0.0023,0.0018,0.0021,-0.0023,-0.0031,-0.0062,-0.0094,-0.0107,-0.0116,-0.0124,-0.0143,-0.0138,-0.0134,-0.0134,-0.0163,-0.0161,-0.0159,-0.018,-0.018,-0.018,0,0,0.0097,0.0086,0.0098,0.0089,0.0076,0.0064,0.0064,0.0043,0.0033,0.0018,-0.0009,-0.0034,-0.007,-0.0086,-0.01,-0.0094,-0.0125,-0.0105,-0.0075,-0.0102,-0.01,-0.0099,-0.0117,-0.0119,-0.0101,-0.0101,-0.0101,0,0.0108,0.012,0.0099,0.0106,0.0109,0.0075,0.0091,0.0076,0.0049,0.0047,0.0023,-0.0027,-0.0058,-0.0065,-0.0066,-0.0084,-0.0104,-0.0084,-0.0096,-0.0095,-0.0095,-0.0114,-0.0116,-0.0098,-0.0098,-0.0098,-0.0099,0,0.0139,0.0148,0.0155,0.0156,0.0154,0.0161,0.0143,0.0136,0.0115,0.0097,0.0076,0.0028,0.0001,-0.0016,-0.0041,-0.0051,-0.0067,-0.0087,-0.0101,-0.0089,-0.0111,-0.0114,-0.0094,-0.0095,-0.0096,-0.0096,0,0,0.0172,0.0178,0.018,0.0196,0.0183,0.0191,0.0195,0.0195,0.0209,0.0159,0.0167,0.0111,0.0076,0.0057,0.002,-0.001,-0.003,-0.0047,-0.005,-0.0056,-0.0085,-0.0099,-0.0104,-0.0053,-0.0053,-0.0053,-0.0097,0,0.0204,0.0239,0.0229,0.0266,0.0287,0.0265,0.0279,0.0272,0.0252,0.0248,0.0188,0.0173,0.0108,0.0096,0.0055,-0.0004,-0.0037,-0.0016,-0.0105,-0.0107,-0.0113,-0.0108,-0.0085,-0.0123,-0.01,-0.0101,-0.0101,0,0.024,0.0262,0.0306,0.0339,0.0347,0.0361,0.0386,0.0393,0.0373,0.0357,0.0317,0.0265,0.0215,0.0155,0.0054,0.007,-0.0005,-0.0061,-0.0064,-0.01,-0.0127,-0.0135,-0.0129,-0.0106,-0.0106,-0.0106,-0.0105,0,0.0286,0.0319,0.0362,0.037,0.0396,0.0417,0.0429,0.0427,0.0453,0.0423,0.0429,0.035,0.0325,0.0213,0.0087,0.007,-0.0023,-0.0058,-0.0143,-0.0144,-0.0155,-0.0157,-0.0137,-0.0137,-0.0137,-0.0137,-0.0137,0,0.0331,0.0366,0.039,0.0416,0.0479,0.0473,0.0533,0.0531,0.0544,0.0591,0.0488,0.0503,0.0336,0.0258,0.0124,-0.0009,0.0004,-0.0136,-0.0158,-0.0133,-0.0133,-0.0146,-0.0146,-0.0138,-0.0138,-0.0138,-0.0137,0,0.0378,0.0388,0.0446,0.0486,0.0504,0.055,0.0609,0.0654,0.0648,0.0705,0.0699,0.0627,0.0525,0.0354,0.019,0.0059,-0.008,-0.0134,-0.0091,-0.0108,-0.0195,-0.0192,-0.0235,-0.0236,-0.0237,-0.0237,-0.0238,0,0.0405,0.0439,0.0503,0.0546,0.0568,0.0633,0.0685,0.0706,0.0764,0.0794,0.0835,0.0747,0.0706,0.0452,0.0208,-0.0025,-0.0066,-0.0164,-0.0205,-0.0189,-0.0205,-0.0201,-0.0197,-0.0192,-0.0193,-0.0193,-0.0193,0,0.0463,0.0484,0.0534,0.0622,0.0685,0.0764,0.084,0.0905,0.0948,0.0987,0.1036,0.1,0.0765,0.0533,0.0206,0.0044,-0.013,-0.0174,-0.0163,-0.0171,-0.0152,-0.0168,-0.0164,-0.0194,-0.0193,-0.0193,-0.0193,-0.0193,0.0508,0.0554,0.0619,0.0704,0.0782,0.0886,0.0956,0.1044,0.1139,0.1205,0.1184,0.1131,0.0876,0.0453,0.0173,-0.0131,-0.0122,-0.0238,-0.0236,-0.0234,-0.0221,-0.0205,-0.0254,-0.0254,-0.0254,-0.0254,-0.0254,0,0.0564,0.0613,0.0696,0.0797,0.0889,0.0921,0.1055,0.112,0.1233,0.1293,0.1313,0.1067,0.0805,0.0502,0.0058,-0.0205,-0.023,-0.0295,-0.0266,-0.0263,-0.0261,-0.0249,-0.0289,-0.0289,-0.029,-0.0291,0,0,0.0594,0.0678,0.0718,0.0868,0.0941,0.1058,0.1134,0.1225,0.1289,0.1333,0.1309,0.1254,0.09,0.0574,0.0219,-0.0037,-0.0095,-0.0092,-0.0036,0.0044,0.0049,-0.0197,-0.0171,0,0,0,0,0]}],[{"header":{"parameterUnit":"m.s-1","parameterCategory":2,"la1":30.2991,"la2":30.254,"lo1":-89.0895,"lo2":-89.0444,"dy":0.0017,"dx":0.0017,"nx":28,"ny":28,"refTime":"2023-11-03T09:00:00:Z","depth":"4","parameterNumber":2,"parameterNumberName":"U-component_of_CURRENTS"},"data":[0,0,0,0,0,0,0,0,0,0,0,0,0,0,0,0,0,0,0,0,0,0,0,0,0,0,0,0,0,0,0,0,0,0,0,0,0,0,0,0,0,0,0,0,0,0,0,0,0,0,0,0,0,0,0,0,0,0,0.1552,0.1553,0,0.162,0.162,0.1621,0.1676,0.1677,0.1678,0.1679,0.1742,0.1743,0.1744,0,0,0,0,0,0,0,0,0,0,0,0,0,0.1439,0.1441,0.1552,0.1553,0.1554,0.1619,0.162,0.1621,0.1676,0.1677,0.1678,0.1679,0.1742,0.1743,0.1744,0,0,0,0,0,0,0,0,0,0,0,0,0,0.1493,0.1442,0.1551,0.1591,0.1595,0.1619,0.162,0.1621,0.1676,0.1677,0.1679,0.168,0.1741,0.1743,0.1744,0.1729,0,0,0.1748,0.1749,0,0,0,0,0,0,0,0,0.149,0.1497,0.1584,0.1588,0.1593,0.1643,0.1604,0.1658,0.1676,0.1643,0.1679,0.168,0.1709,0.1713,0.172,0.1732,0.1735,0.1749,0.1749,0.175,0.175,0,0,0,0,0,0,0,0.1487,0.1495,0.1576,0.1585,0.1591,0.1595,0.1604,0.1614,0.1667,0.1646,0.1651,0.1662,0.1711,0.1719,0.1722,0.1736,0.1748,0.175,0.1751,0.1751,0.1845,0.1847,0,0,0,0,0,0,0.1483,0.1491,0.1574,0.1578,0.1546,0.1596,0.1606,0.1624,0.1667,0.1675,0.1661,0.1664,0.1716,0.172,0.1724,0.1799,0.175,0.1751,0.1752,0.1844,0.1846,0.1847,0,0,0,0,0,0,0.1481,0.149,0.1571,0.1538,0.1549,0.1598,0.1616,0.1625,0.1669,0.1678,0.1686,0.1701,0.1717,0.1722,0.1768,0.1799,0.1752,0.1753,0.1842,0.1844,0.1846,0.1891,0,0,0,0,0,0,0.1477,0.1489,0.1516,0.1538,0.1551,0.1609,0.1616,0.1625,0.1673,0.1679,0.1715,0.172,0.1718,0.1766,0.1769,0.18,0.1754,0.184,0.1843,0.1846,0.1887,0.1895,0.1901,0,0,0,0,0,0.1473,0.1498,0.1517,0.1528,0.1581,0.161,0.1618,0.1654,0.1674,0.1698,0.1727,0.1721,0.1788,0.1768,0.1772,0.1804,0.1838,0.1842,0.1845,0.1884,0.1893,0.1901,0,0,0,0,0,0,0.1461,0.1507,0.1528,0.1567,0.1599,0.1621,0.1652,0.1673,0.1714,0.1732,0.1738,0.1745,0.1798,0.1796,0.1774,0.1842,0.1814,0.1818,0.1842,0.185,0.1857,0.1854,0.1756,0,0,0,0,0,0.1471,0.1508,0.1542,0.1578,0.1598,0.1632,0.1656,0.1681,0.1711,0.1733,0.1756,0.1784,0.1809,0.1828,0.1847,0.1879,0.1886,0.1905,0.1911,0.1917,0.1919,0.196,0.197,0.186,0.186,0.1859,0,0,0.1477,0.1507,0.153,0.1579,0.1609,0.1639,0.165,0.1697,0.1727,0.1731,0.1789,0.1811,0.1824,0.1865,0.1888,0.1872,0.1954,0.1922,0.1926,0.1925,0.1965,0.1975,0.1985,0.1862,0.1862,0.1861,0,0,0.149,0.1536,0.1567,0.1597,0.165,0.1669,0.1691,0.1734,0.1766,0.1816,0.1829,0.1871,0.191,0.1923,0.1933,0.1988,0.199,0.2004,0.2033,0.2073,0.2083,0.2091,0.2118,0.2128,0.2005,0.2005,0.2005,0,0.15,0.1539,0.1579,0.1611,0.1641,0.1686,0.1718,0.175,0.1804,0.1833,0.1846,0.1922,0.1933,0.1976,0.1998,0.2002,0.2025,0.1999,0.2081,0.209,0.2097,0.2123,0.2134,0.2008,0.2007,0.2007,0.2007,0,0.1522,0.1566,0.1587,0.1644,0.168,0.1718,0.1763,0.181,0.1856,0.1885,0.1957,0.198,0.2026,0.2037,0.2035,0.2096,0.2096,0.2086,0.2057,0.2111,0.2135,0.2145,0.2011,0.201,0.201,0.2009,0,0,0.1509,0.1588,0.1599,0.1629,0.1703,0.1728,0.1791,0.1849,0.1895,0.1955,0.2011,0.2059,0.2088,0.2102,0.2113,0.2142,0.2214,0.2143,0.2144,0.2164,0.2308,0.2175,0.2173,0.2227,0.2229,0.223,0.2305,0,0.1517,0.1573,0.1615,0.1672,0.1704,0.1766,0.1814,0.1877,0.1939,0.2003,0.2048,0.2108,0.2108,0.2145,0.2178,0.2207,0.2243,0.2194,0.2258,0.226,0.213,0.2181,0.2236,0.2312,0.2315,0.2316,0.2318,0,0.1519,0.1558,0.1614,0.1688,0.171,0.1755,0.1849,0.1901,0.1995,0.2047,0.2121,0.216,0.2227,0.2216,0.2302,0.2278,0.2303,0.2315,0.2319,0.2183,0.2145,0.2248,0.2336,0.2334,0.2333,0.2332,0.2331,0,0.1473,0.1554,0.1599,0.1626,0.1716,0.1765,0.1825,0.1923,0.1976,0.2089,0.2142,0.2224,0.2284,0.2329,0.2373,0.2353,0.2455,0.2425,0.2327,0.2318,0.2395,0.2386,0.2486,0.2485,0.2485,0.2485,0.2485,0,0.1447,0.1486,0.1589,0.1611,0.1672,0.1753,0.1833,0.1905,0.2014,0.2072,0.217,0.2225,0.232,0.2386,0.2405,0.24,0.249,0.2338,0.233,0.2413,0.2405,0.2403,0.2392,0.2488,0.2487,0.2487,0.2486,0,0.1384,0.1452,0.1506,0.1613,0.1652,0.1703,0.1833,0.1883,0.2003,0.2086,0.2128,0.2257,0.2341,0.2413,0.2493,0.2431,0.2442,0.242,0.2517,0.2513,0.2268,0.226,0.2301,0.2296,0.2293,0.229,0.2288,0,0.1351,0.1375,0.1493,0.153,0.1586,0.1677,0.1733,0.1865,0.1919,0.2083,0.2106,0.2241,0.231,0.2317,0.2404,0.2434,0.2409,0.2391,0.2307,0.2262,0.2251,0.2248,0.2244,0.2282,0.2281,0.228,0.228,0,0.1281,0.134,0.1385,0.1464,0.1533,0.1592,0.169,0.1712,0.1855,0.1981,0.2036,0.2083,0.2175,0.2234,0.2283,0.2296,0.2381,0.2354,0.236,0.2281,0.2241,0.2232,0.2232,0.2268,0.2269,0.2271,0.2271,0,0.1232,0.1247,0.132,0.1378,0.1454,0.1482,0.1545,0.161,0.1679,0.1854,0.1875,0.2018,0.2153,0.2166,0.2209,0.2215,0.2173,0.2083,0.2102,0.2116,0.2021,0.1941,0.1874,0,0,0,0,0,0.1175,0.1183,0.1228,0.1277,0.1347,0.1398,0.15,0.1565,0.17,0.1692,0.1777,0.1853,0.1918,0.2002,0.1972,0.2131,0.2182,0.2085,0.2087,0.2202,0.2215,0.212,0,0,0,0,0,0,0.1133,0.1173,0.1191,0.1183,0.1201,0.1264,0.1324,0.1418,0.1423,0.1571,0.1624,0.174,0.1843,0.1923,0.1939,0.1963,0.1924,0.2184,0.2179,0.2194,0.2206,0.2217,0.2124,0,0,0,0,0]},{"header":{"parameterUnit":"m.s-1","parameterCategory":2,"la1":30.2991,"la2":30.254,"lo1":-89.0895,"lo2":-89.0444,"dy":0.0017,"dx":0.0017,"nx":28,"ny":28,"refTime":"2023-11-03T09:00:00:Z","depth":"4","parameterNumber":3,"parameterNumberName":"V-component_of_CURRENTS"},"data":[0,0,0,0,0,0,0,0,0,0,0,0,0,0,0,0,0,0,0,0,0,0,0,0,0,0,0,0,0,0,0,0,0,0,0,0,0,0,0,0,0,0,0,0,0,0,0,0,0,0,0,0,0,0,0,0,0,0,0.0157,0.0156,0,0.0121,0.0121,0.012,0.0104,0.0104,0.0104,0.0105,0.0064,0.0063,0.0062,0,0,0,0,0,0,0,0,0,0,0,0,0,0.0177,0.0177,0.0157,0.0156,0.0156,0.0121,0.0121,0.012,0.0104,0.0104,0.0104,0.0105,0.0064,0.0063,0.0062,0,0,0,0,0,0,0,0,0,0,0,0,0,0.0156,0.0177,0.0157,0.0145,0.0143,0.0121,0.0121,0.012,0.0104,0.0104,0.0104,0.0105,0.0065,0.0063,0.0061,0.0046,0,0,0.0056,0.0055,0,0,0,0,0,0,0,0,0.0158,0.0156,0.0147,0.0145,0.0144,0.0118,0.0113,0.0095,0.0104,0.0118,0.0105,0.0105,0.0082,0.0079,0.0071,0.0044,0.0043,0.0056,0.0055,0.0054,0.0053,0,0,0,0,0,0,0,0.0159,0.0157,0.0142,0.0146,0.0145,0.0129,0.0127,0.0109,0.0099,0.0117,0.0116,0.0113,0.0081,0.0072,0.0069,0.0042,0.0056,0.0054,0.0053,0.0052,0.0014,0.0014,0,0,0,0,0,0,0.0167,0.0158,0.0143,0.0141,0.0152,0.0129,0.0126,0.0125,0.0099,0.0095,0.0113,0.0113,0.0075,0.0072,0.0068,0.0075,0.0054,0.0052,0.0051,0.0014,0.0014,0.0014,0,0,0,0,0,0,0.0168,0.0166,0.0144,0.0149,0.0146,0.0129,0.0128,0.0125,0.0119,0.0096,0.0092,0.0112,0.0075,0.0071,0.006,0.0072,0.0051,0.005,0.0014,0.0014,0.0014,0.0071,0,0,0,0,0,0,0.0168,0.0167,0.0169,0.015,0.0146,0.0137,0.0128,0.0124,0.0118,0.0117,0.0094,0.009,0.0075,0.0063,0.0058,0.0069,0.0048,0.0014,0.0014,0.0014,0.0069,0.0073,0.0077,0,0,0,0,0,0.0169,0.0174,0.017,0.0168,0.015,0.0137,0.0133,0.0121,0.0118,0.0116,0.0104,0.0091,0.006,0.0061,0.0056,0.0067,0.0014,0.0014,0.0014,0.0068,0.0073,0.0077,0,0,0,0,0,0,0.0185,0.0173,0.0167,0.0168,0.0156,0.0135,0.0134,0.0124,0.0112,0.0113,0.0092,0.0087,0.0082,0.0062,0.0064,0.0054,0.0034,0.0033,0.0077,0.0081,0.0085,0.0101,0.0047,0,0,0,0,0,0.0189,0.0191,0.0174,0.0176,0.0171,0.0153,0.0146,0.0138,0.0125,0.0119,0.0103,0.0086,0.0076,0.0071,0.0054,0.0048,0.0024,0.005,0.0054,0.0057,0.0065,0.0041,0.0044,0.0014,0.0014,0.0014,0,0,0.0196,0.019,0.019,0.0179,0.0169,0.017,0.0149,0.0144,0.0149,0.0117,0.0118,0.0098,0.0077,0.0074,0.0069,0.0061,0.0051,0.0057,0.0061,0.0067,0.0041,0.0044,0.0047,0.0014,0.0014,0.0014,0,0,0.021,0.0204,0.021,0.0204,0.0193,0.0184,0.0185,0.0166,0.0162,0.0156,0.0139,0.0129,0.0105,0.0098,0.0091,0.0103,0.007,0.0093,0.0128,0.0105,0.0107,0.0109,0.0076,0.0075,0.0097,0.0097,0.0097,0,0.0217,0.0227,0.0209,0.0215,0.0219,0.0194,0.0206,0.0197,0.0178,0.0181,0.0165,0.0141,0.0121,0.0128,0.0132,0.0114,0.0089,0.0117,0.0111,0.0113,0.0114,0.0079,0.0077,0.01,0.0099,0.0099,0.0099,0,0.0236,0.0247,0.0251,0.0254,0.0253,0.0259,0.0248,0.0248,0.0239,0.0229,0.0227,0.0196,0.0186,0.0175,0.0158,0.0159,0.0134,0.0119,0.0104,0.012,0.0083,0.0079,0.0104,0.0103,0.0102,0.0101,0,0,0.0249,0.0263,0.0266,0.0285,0.0279,0.0285,0.0296,0.0302,0.0321,0.0292,0.0308,0.0282,0.0261,0.0251,0.0225,0.0204,0.0184,0.0168,0.0165,0.0144,0.0123,0.0094,0.0087,0.0167,0.0167,0.0167,0.0092,0,0.0272,0.0302,0.03,0.0337,0.0355,0.0348,0.0365,0.0367,0.036,0.0365,0.0335,0.0333,0.0292,0.0289,0.0262,0.0206,0.0179,0.0206,0.0104,0.0101,0.008,0.0083,0.0166,0.0089,0.0088,0.0088,0.0087,0,0.0293,0.0316,0.0355,0.0397,0.0405,0.0423,0.0457,0.047,0.0467,0.0461,0.0446,0.0412,0.0383,0.0342,0.0256,0.0272,0.0205,0.0154,0.015,0.0103,0.0066,0.0069,0.0081,0.0081,0.0082,0.0082,0.0082,0,0.032,0.0358,0.0399,0.041,0.0444,0.0471,0.0493,0.0502,0.0528,0.0521,0.0527,0.0479,0.0459,0.0373,0.026,0.0257,0.0153,0.0136,0.0045,0.0042,0.0066,0.0064,0.0075,0.0075,0.0075,0.0075,0.0075,0,0.0348,0.0384,0.0421,0.0445,0.0507,0.0515,0.0575,0.0586,0.0606,0.0637,0.0582,0.0581,0.0465,0.0386,0.0279,0.0149,0.0165,0.0052,0.0024,0.0089,0.0092,0.0063,0.0062,0.0072,0.0073,0.0074,0.0074,0,0.037,0.039,0.0447,0.0499,0.0522,0.0569,0.0637,0.0676,0.0685,0.0721,0.072,0.0659,0.055,0.042,0.0274,0.0179,0.0055,0.0004,0.008,0.0056,-0.0047,-0.0044,-0.01,-0.0101,-0.0103,-0.0104,-0.0105,0,0.0383,0.0413,0.0489,0.053,0.0558,0.0628,0.0676,0.0715,0.0752,0.0763,0.0778,0.0692,0.0627,0.0405,0.026,0.005,0.0018,-0.0051,-0.0045,-0.0041,-0.0063,-0.0058,-0.0053,-0.0107,-0.0107,-0.0107,-0.0108,0,0.0411,0.0439,0.0485,0.0567,0.063,0.0706,0.0772,0.0803,0.084,0.0852,0.0819,0.0703,0.0578,0.0401,0.0234,0.0086,-0.0008,-0.0066,-0.0064,-0.0059,-0.005,-0.007,-0.0064,-0.0112,-0.0112,-0.0111,-0.0111,0,0.0433,0.0467,0.0526,0.0598,0.068,0.075,0.0789,0.0826,0.0864,0.0866,0.0852,0.0719,0.0648,0.0418,0.0267,0.0113,0.0073,0.002,0.0017,0.002,0.0072,0.0101,0.0064,0,0,0,0,0,0.0448,0.0481,0.0549,0.0624,0.0707,0.0754,0.0837,0.0866,0.0896,0.0879,0.0867,0.0747,0.0523,0.0432,0.0273,0.023,0.0038,0.0036,-0.0026,-0.0138,-0.0133,-0.0095,0,0,0,0,0,0,0.0455,0.0515,0.0543,0.0632,0.0683,0.0774,0.0828,0.0853,0.0843,0.0848,0.0736,0.0691,0.0477,0.0608,0.0262,0.0217,0.0152,-0.0061,-0.0065,-0.0141,-0.0136,-0.0132,-0.0092,0,0,0,0,0]}]]